TIME,DELAY(SENSOR),PRES,OXYGEN,RAWTEMP,T(OPTODE),TCPHASE,FLUOR,BETA(BETA700),BETA(BETA412),BETA(BETA440),CDOM,C(CSC),ED(ED412.40),ED(ED444.00),ED(ED489.70),ED(ED554.30),LU(LU411.80),LU(LU443.40),LU(LU489.60),LU(LU554.10),COMP,TILTX,TILTY,CHECK
1361075318,5807,887.9000244140625000,44.6846008300781250,659.3505249023438000,4.6493530273437500,54.2939987182617200,52,100,87,78,80,14937,2147755081,2147420964,2148009956,2147872832,2147640384,2147058514,2148254125,2147198500,2943,4,14,9237
1361078914,5809,967.5100097656250000,47.6102409362793000,668.4906005859375000,4.3480448722839355,53.9894599914550800,52,98,89,78,80,14930,2147756141,2147423524,2148011529,2147877586,2147640420,2147056813,2148260224,2147199113,129,4,13,24835
1361082514,5803,972.3800048828125000,49.3391189575195300,670.8344116210938000,4.2706298828125000,53.7695198059082000,53,99,86,79,80,14935,2147757513,2147421494,2148009234,2147873307,2147643410,2147058642,2148262336,2147193773,96,4,13,23061
1361086114,5809,977.9099731445312000,49.1930503845214840,672.6994018554688000,4.2089838981628420,53.8155097961425800,53,100,89,79,80,14931,2147755483,2147422701,2148012041,2147875949,2147641526,2147058541,2148263616,2147200393,255,4,13,43538
1361089714,5809,985.3800048828125000,49.0084915161132800,671.9957885742188000,4.2322459220886230,53.8334693908691400,53,99,85,78,79,14931,2147757732,2147423177,2148012379,2147874797,2147641828,2147056749,2148260498,2147197376,3566,4,13,30005
1361093314,5805,989.1599731445312000,48.6662788391113300,671.1594238281250000,4.2598919868469240,53.8724784851074200,53,99,88,80,80,14935,2147759689,2147424795,2148011977,2147874843,2147641654,2147061622,2148263341,2147197787,209,4,13,14264
1361096914,5806,994.5399780273438000,48.6491203308105500,672.0703125000000000,4.2297859191894530,53.8812294006347660,52,99,90,78,82,14928,2147760978,2147422555,2148010358,2147874450,2147639789,2147054244,2148260982,2147197147,148,4,13,24333
1361100514,5810,998.4000244140625000,48.9616813659668000,673.1911010742188000,4.1927261352539060,53.8547210693359400,53,99,87,79,80,14932,2147758345,2147423040,2148007360,2147877769,2147639158,2147059126,2148260891,2147197257,341,4,13,61230
1361104114,5810,1002.8400268554688000,48.4857406616210940,671.3333129882812000,4.2541432380676270,53.8958587646484400,52,99,87,78,80,14932,2147757833,2147421586,2148012809,2147873435,2147641261,2147055195,2148257718,2147197833,40,4,13,1908
1361107714,5810,992.8300170898438000,48.4508399963378900,671.5761718750000000,4.2461171150207520,53.9077606201171900,52,99,84,78,80,14932,2147757860,2147425609,2148012196,2147874532,2147641892,2147056109,2148256896,2147191350,3571,4,13,15682
1361111314,5805,995.7199707031250000,48.9380607604980500,673.5839843750000000,4.1797308921813965,53.8588218688964840,52,99,88,78,80,14927,2147760292,2147420690,2148011108,2147874148,2147640210,2147052900,2148262125,2147194166,3549,4,13,27999
1361114914,5808,996.8800048828125000,48.8007698059082000,673.5568847656250000,4.1806278228759770,53.8844718933105500,53,99,88,79,81,14933,2147757101,2147421302,2148010505,2147876169,2147639689,2147054875,2148258870,2147199616,399,4,13,48565
1361118514,5810,1009.8800048828125000,48.3428688049316400,671.9459838867188000,4.2338910102844240,53.9261894226074200,52,100,85,79,80,14930,2147758811,2147422180,2148009042,2147872758,2147641051,2147061312,2148258112,2147195382,52,4,13,3926
1361122114,5811,1000.5900268554688000,48.1870002746582000,671.9918212890625000,4.2323799133300780,53.9445800781250000,53,100,83,79,80,14931,2147759131,2147425691,2148011748,2147874212,2147641408,2147057060,2148256073,2147195931,3338,4,13,37146
1361125714,5807,1002.7700195312500000,48.2021789550781250,672.9462280273438000,4.2008252143859860,53.9542808532714840,53,100,88,78,80,14927,2147758820,2147422308,2148012278,2147876288,2147638829,2147059328,2148256886,2147201398,901,4,13,894
1361129314,5809,1000.3699951171875000,48.0652885437011700,672.8840942382812000,4.2028789520263670,53.9723510742187500,53,98,88,78,79,14925,2147758674,2147423634,2148012022,2147875968,2147642038,2147060160,2148259099,2147197568,503,4,13,26128
1361132914,5807,993.4600219726562000,48.8430595397949200,674.2670288085938000,4.1571388244628910,53.8855895996093750,52,99,87,79,81,14927,2147759341,2147421284,2148013403,2147876059,2147644406,2147054573,2148259666,2147197101,3560,4,13,63106
1361136514,5811,1008.6799926757812000,48.4682502746582000,673.3084716796875000,4.1888408660888670,53.9244613647460940,52,99,88,80,81,14928,2147761462,2147421952,2148013046,2147877046,2147640128,2147059922,2148256320,2147198189,961,4,13,44112
1361140114,5810,1002.7199707031250000,47.9639892578125000,671.5372924804688000,4.2473998069763180,53.9738502502441400,52,98,88,79,80,14929,2147758336,2147421778,2148012452,2147872502,2147640667,2147053449,2148259629,2147195849,3521,4,14,63575
1361143714,5808,1010.1599731445312000,48.3184890747070300,671.6491699218750000,4.2437019348144530,53.9270515441894500,52,103,85,77,80,14930,2147756105,2147422016,2148012278,2147873462,2147643977,2147055908,2148261458,2147196873,3595,4,14,46353
1361147314,5808,998.5100097656250000,48.0115890502929700,671.5919189453125000,4.2455959320068360,53.9701118469238300,52,99,87,79,80,14877,2147758043,2147424411,2148010642,2147874422,2147642020,2147054482,2148264539,2147198381,493,4,13,64044
1361150914,5808,999.9600219726562000,47.9816703796386700,672.0587158203125000,4.2301650047302250,53.9808883666992200,52,99,82,79,80,14872,2147759890,2147424082,2148011574,2147876854,2147638354,2147052178,2148263076,2147196845,443,4,13,4534
1361154514,5808,1008.1400146484375000,48.8376998901367200,672.9963989257812000,4.1991629600524900,53.8667602539062500,52,100,89,78,80,14870,2147753974,2147420086,2148010240,2147874395,2147642002,2147056347,2148263058,2147200045,2462,4,13,16280
1361158114,5809,1009.7100219726562000,48.1007995605468750,671.6959838867188000,4.2421550750732420,53.9576683044433600,53,98,88,79,81,14873,2147758948,2147424932,2148009353,2147875611,2147641728,2147055396,2148260041,2147195958,115,4,13,39279
1361161714,5806,1008.5599975585938000,47.3163185119628900,671.5563964843750000,4.2467708587646480,54.0680809020996100,52,99,88,80,80,14871,2147760347,2147423542,2148010660,2147876315,2147641856,2147058660,2148259940,2147197650,234,4,13,2486
1361165314,5809,1002.1500244140625000,48.5132408142089840,673.4641723632812000,4.1836929321289060,53.9172401428222660,52,102,86,79,80,14870,2147757723,2147423104,2148010651,2147875346,2147641947,2147053138,2148259949,2147195200,3524,4,13,5334
1361168914,5808,1004.4000244140625000,48.6058502197265600,673.3959960937500000,4.1859488487243650,53.9038085937500000,52,97,83,79,80,14868,2147761078,2147424594,2148012105,2147877321,2147642624,2147057545,2148257718,2147199259,3186,4,13,61772
1361172514,5807,1008.1099853515625000,49.1584815979003900,673.4057006835938000,4.1856288909912110,53.8322410583496100,53,98,84,80,82,14872,2147760438,2147424045,2148011858,2147873627,2147641609,2147050688,2148261138,2147200320,3479,4,13,63157
1361176114,5808,1003.4299926757812000,48.8396797180175800,673.2525024414062000,4.1906948089599610,53.8734588623046900,53,99,86,79,80,14848,2147760237,2147426550,2148009280,2147873947,2147641014,2147051053,2148255963,2147193197,3535,4,13,63348
1361179714,5809,1010.9799804687500000,48.8356895446777340,673.2860107421875000,4.1895871162414550,53.8764991760253900,53,103,88,78,80,14869,2147758116,2147422326,2148011355,2147876425,2147642112,2147055286,2148256612,2147195931,70,4,13,60363
1361183314,5805,1011.7899780273438000,47.5177383422851560,671.9445190429688000,4.2339420318603520,54.0433807373046900,53,98,88,78,81,14865,2147755858,2147427885,2148010651,2147874788,2147644589,2147056896,2148258578,2147193929,368,4,13,12809
1361186914,5811,1006.7999877929688000,47.2660293579101560,672.0609741210938000,4.2300910949707030,54.0776100158691400,53,97,88,79,81,14868,2147759058,2147422016,2148010514,2147874989,2147644662,2147054436,2148259757,2147199542,274,4,13,51352
1361190514,5810,1004.9899902343750000,48.4602508544921900,673.4666748046875000,4.1836128234863280,53.9247817993164060,53,102,86,80,79,14872,2147758262,2147421988,2148013147,2147875730,2147639808,2147056676,2148264301,2147199606,33,4,13,5429
1361194114,5810,1006.3900146484375000,48.7539787292480500,673.1271972656250000,4.1948390007019040,53.8808708190918000,52,97,87,79,81,14868,2147759058,2147423387,2148010523,2147875117,2147644059,2147055360,2148262729,2147196443,361,4,13,8964
1361197714,5805,999.2100219726562000,48.4542388916015600,673.4622802734375000,4.1837577819824220,53.9309196472168000,52,103,85,79,82,14868,2147759488,2147423140,2148010651,2147875574,2147643465,2147057115,2148257398,2147198354,158,4,13,11683
1361201314,5806,995.3400268554688000,48.3906707763671900,674.5244140625000000,4.1486229896545410,53.9525489807128900,52,97,89,78,81,14869,2147756937,2147423186,2148011446,2147874176,2147641499,2147059145,2148259300,2147197824,662,4,13,64311
1361204914,5807,994.9299926757812000,48.8517189025878900,675.4240112304688000,4.1188549995422360,53.8966789245605500,52,99,84,78,81,14870,2147756800,2147425472,2148012306,2147878116,2147642240,2147057170,2148263625,2147193920,3516,4,13,21630
1361208514,5803,996.2899780273438000,48.9775390625000000,675.6290893554688000,4.1120657920837400,53.8831596374511700,53,99,88,80,81,14867,2147758317,2147425618,2148010706,2147873984,2147644132,2147051748,2148258797,2147194688,187,4,13,11937
1361212114,5808,996.5200195312500000,49.2390098571777340,676.2036743164062000,4.0930461883544920,53.8556709289550800,51,98,89,79,80,14865,2147759515,2147424210,2148011300,2147875273,2147642779,2147055780,2148261897,2147196790,3072,4,13,54140
1361215714,5808,1007.3200073242188000,49.0001106262207000,673.6538696289062000,4.1774201393127440,53.8548316955566400,53,108,90,80,80,14863,2147756379,2147422235,2148010029,2147874130,2147642605,2147056027,2148260845,2147195776,3488,4,13,29319
1361217656,5811,1009.6300048828125000,48.9378395080566400,673.4525146484375000,4.1840820312500000,53.8599205017089840,52,100,86,79,80,14924,2147765257,2147423222,2148008493,2147873718,2147643483,2147053074,2148260873,2147198253,507,4,13,50002
